Weather History for Elizabeth City, NC

Change the Weather History Date:

Tuesday, April 22, 2014

  Actual Average Record
Temperature  
Mean Temperature 61 °F 60 °F  
Max Temperature 80 °F 71 °F 95 °F (1985)
Min Temperature 41 °F 50 °F 34 °F (1981)
Degree Days  
Heating Degree Days 4 6  
Month to date heating degree days 152 182  
Since 1 July heating degree days 3273 3119  
Cooling Degree Days 0 1  
Month to date cooling degree days 22 22  
Year to date cooling degree days 22 29  
Growing Degree Days 10 (Base 50)    
Moisture  
Dew Point 48 °F    
Average Humidity 68    
Maximum Humidity 100    
Minimum Humidity 36    
Precipitation  
Precipitation 0.00 in 0.11 in 1.22 in (2012)
Month to date precipitation 2.43 2.36  
Year to date precipitation 8.98 12.78  
Snow  
Snow 0.00 in - 0.90 in ()
Month to date snowfall 0.0  
Since 1 July snowfall 10.2  
Snow Depth 0.00 in    
Sea Level Pressure  
Sea Level Pressure 29.78 in    
Wind  
Wind Speed 7 mph (SSW)    
Max Wind Speed 17 mph    
Max Gust Speed 22 mph    
Visibility 7 miles    
Events Fog    
T = Trace of Precipitation, MM = Missing Value Source: NWS Daily Summary

Daily Weather History Graph

Daily Weather History Graph

Search for Another Location

Airport:

Trip Planner

Search our weather history database for the weather conditions in past years. The results will help you decide how hot, cold, wet, or windy it might be!

Date:

Astronomy

Apr. 22, 2014 Rise Set
Actual Time 6:22 AM EDT 7:44 PM EDT
Civil Twilight 5:55 AM EDT 8:11 PM EDT
Nautical Twilight 5:23 AM EDT 8:43 PM EDT
Astronomical Twilight 4:49 AM EDT 9:17 PM EDT
Moon 1:57 AM EDT (4/22) 12:55 PM EDT (4/22)
Length of Visible Light 14h 16m
Length of Day
13h 22m
Last Quarter, 46% of the Moon is Illuminated
Apr 22
Last Quarter
Apr 29
New
May 6
First Quarter
May 14
Full
May 21
Last Quarter

Hourly Weather History & Observations

Time (EDT) Temp. Windchill Dew Point Humidity Pressure Visibility Wind Dir Wind Speed Gust Speed Precip Events Conditions
12:54 AM 46.9 °F - 45.0 °F 93% 29.92 in 10.0 mi Calm Calm - N/A   Clear
1:54 AM 46.0 °F - 44.1 °F 93% 29.89 in 4.0 mi Calm Calm - N/A   Clear
2:19 AM 42.8 °F 41.1 °F 42.8 °F 100% 29.89 in 1.2 mi WSW 3.5 mph - N/A   Partly Cloudy
2:22 AM 42.8 °F - 41.0 °F 93% 29.88 in 0.8 mi Calm Calm - N/A   Mist
2:54 AM 43.0 °F - 42.1 °F 97% 29.88 in 0.5 mi Calm Calm - N/A Fog Fog
3:04 AM 42.8 °F - 42.8 °F 100% 29.87 in 1.0 mi Calm Calm - N/A   Clear
3:08 AM 42.8 °F - 42.8 °F 100% 29.87 in 0.8 mi Calm Calm - N/A   Mist
3:16 AM 42.8 °F - 42.8 °F 100% 29.87 in 1.2 mi Calm Calm - N/A   Partly Cloudy
3:32 AM 42.8 °F - 42.8 °F 100% 29.87 in 0.2 mi Calm Calm - N/A Fog Fog
3:54 AM 43.0 °F - 42.1 °F 97% 29.86 in 2.5 mi Calm Calm - N/A   Partly Cloudy
4:01 AM 42.8 °F - 41.0 °F 93% 29.86 in 9.0 mi Calm Calm - N/A   Clear
4:07 AM 44.6 °F - 42.8 °F 93% 29.86 in 1.5 mi Calm Calm - N/A   Partly Cloudy
4:09 AM 44.6 °F - 42.8 °F 93% 29.86 in 0.8 mi Calm Calm - N/A   Mist
4:19 AM 44.6 °F - 42.8 °F 93% 29.85 in 1.5 mi Calm Calm - N/A   Partly Cloudy
4:21 AM 44.6 °F - 42.8 °F 93% 29.85 in 4.0 mi Calm Calm - N/A   Partly Cloudy
4:54 AM 41.0 °F - 39.9 °F 96% 29.85 in 7.0 mi Calm Calm - N/A   Clear
6:54 AM 45.0 °F - 42.1 °F 90% 29.84 in 8.0 mi Calm Calm - N/A   Clear
7:54 AM 52.0 °F - 50.0 °F 93% 29.84 in 9.0 mi SSW 6.9 mph - N/A   Clear
8:54 AM 57.9 °F - 51.1 °F 78% 29.83 in 10.0 mi SSW 9.2 mph - N/A   Clear
9:54 AM 64.0 °F - 51.1 °F 63% 29.80 in 10.0 mi SSW 8.1 mph - N/A   Clear
10:54 AM 68.0 °F - 52.0 °F 56% 29.78 in 10.0 mi SSW 9.2 mph - N/A   Clear
11:54 AM 71.1 °F - 54.0 °F 55% 29.76 in 10.0 mi SSW 11.5 mph - N/A   Clear
12:54 PM 73.9 °F - 53.1 °F 48% 29.72 in 10.0 mi SSW 9.2 mph - N/A   Clear
1:54 PM 77.0 °F - 54.0 °F 45% 29.70 in 10.0 mi SSW 13.8 mph - N/A   Clear
2:54 PM 78.1 °F - 54.0 °F 43% 29.67 in 10.0 mi SSW 11.5 mph - N/A   Clear
3:54 PM 79.0 °F - 52.0 °F 39% 29.64 in 10.0 mi SSW 13.8 mph - N/A   Clear
4:54 PM 80.1 °F - 52.0 °F 38% 29.62 in 10.0 mi SSW 13.8 mph - N/A   Clear
5:54 PM 79.0 °F - 53.1 °F 40% 29.62 in 10.0 mi SSW 8.1 mph - N/A   Clear
6:54 PM 73.9 °F - 54.0 °F 50% 29.62 in 10.0 mi SW 6.9 mph - N/A   Clear
7:54 PM 70.0 °F - 53.1 °F 55% 29.61 in 10.0 mi SSW 8.1 mph - N/A   Partly Cloudy
8:54 PM 70.0 °F - 54.0 °F 57% 29.63 in 10.0 mi SW 6.9 mph - N/A   Overcast
9:54 PM 66.0 °F - 55.0 °F 68% 29.64 in 10.0 mi SW 6.9 mph - N/A   Mostly Cloudy
10:54 PM 66.9 °F - 55.0 °F 66% 29.64 in 10.0 mi SSW 3.5 mph - N/A   Overcast
11:54 PM 63.0 °F - 55.9 °F 78% 29.64 in 10.0 mi SW 8.1 mph - N/A   Overcast